QFA596 YSSY-YSCB

Flight info

Callsign QFA596
Flight time 0h 33m
Altitude 19000
Route KEVIN/N0381F180 DCT WOL H65 CB
Aircraft B738/M-SDE2E3FGHIRWXY/LB1

Departure

Time 2026-05-04 06:31
Airport Sydney Kingsford Smith International Airport (YSSY)

Arrival

Time 2026-05-04 07:04
Airport Canberra Airport (YSCB)
Time Latitude Longitude Altitude Speed Heading
2026-05-04 05:41 -33.93144 151.17801 22 ft 0 kts 189°
2026-05-04 06:06 -33.93140 151.17802 22 ft 0 kts 224°
2026-05-04 06:06 -33.93138 151.17804 22 ft 0 kts 226°
2026-05-04 06:08 -33.93134 151.17810 22 ft 2 kts 221°
2026-05-04 06:08 -33.93121 151.17819 22 ft 2 kts 202°
2026-05-04 06:08 -33.93106 151.17825 22 ft 2 kts 187°
2026-05-04 06:08 -33.93092 151.17825 22 ft 1 kts 185°
2026-05-04 06:09 -33.93090 151.17825 22 ft 0 kts 186°
2026-05-04 06:11 -33.93091 151.17819 22 ft 0 kts 277°
2026-05-04 06:20 -33.93109 151.17541 20 ft 14 kts 181°
2026-05-04 06:20 -33.93206 151.17552 18 ft 14 kts 171°
2026-05-04 06:21 -33.93732 151.17677 9 ft 21 kts 161°
2026-05-04 06:21 -33.93864 151.17757 10 ft 25 kts 151°
2026-05-04 06:22 -33.94062 151.17821 13 ft 37 kts 168°
2026-05-04 06:22 -33.94329 151.17889 22 ft 33 kts 167°
2026-05-04 06:25 -33.95205 151.18643 14 ft 38 kts 141°
2026-05-04 06:25 -33.95499 151.18770 11 ft 48 kts 168°
2026-05-04 06:26 -33.95840 151.18857 9 ft 50 kts 167°
2026-05-04 06:26 -33.96152 151.18936 9 ft 42 kts 167°
2026-05-04 06:26 -33.96421 151.19009 10 ft 35 kts 165°
2026-05-04 06:26 -33.96640 151.19064 12 ft 30 kts 170°
2026-05-04 06:27 -33.97125 151.19247 13 ft 0 kts 78°
2026-05-04 06:28 -33.97124 151.19251 13 ft 2 kts 78°
2026-05-04 06:28 -33.97093 151.19353 13 ft 15 kts 56°
2026-05-04 06:29 -33.97052 151.19374 13 ft 0 kts 345°
2026-05-04 06:29 -33.97044 151.19371 13 ft 0 kts 346°
2026-05-04 06:29 -33.97038 151.19369 13 ft 0 kts 348°
2026-05-04 06:30 -33.97037 151.19369 13 ft 0 kts 348°
2026-05-04 06:30 -33.97036 151.19369 13 ft 1 kts 348°
2026-05-04 06:30 -33.96777 151.19305 13 ft 80 kts 348°
2026-05-04 06:30 -33.95975 151.19095 10 ft 147 kts 348°
2026-05-04 06:31 -33.94844 151.18788 444 ft 180 kts 349°
2026-05-04 06:31 -33.93644 151.18558 1545 ft 159 kts 354°
2026-05-04 06:31 -33.92652 151.18539 1889 ft 158 kts 11°
2026-05-04 06:31 -33.91685 151.19319 2037 ft 195 kts 45°
2026-05-04 06:32 -33.90986 151.21138 1564 ft 287 kts 78°
2026-05-04 06:33 -33.93322 151.38153 5180 ft 328 kts 91°
2026-05-04 06:34 -33.93495 151.40935 5175 ft 339 kts 91°
2026-05-04 06:34 -33.93664 151.43767 5172 ft 346 kts 91°
2026-05-04 06:34 -33.93847 151.46713 5174 ft 353 kts 91°
2026-05-04 06:34 -33.94044 151.49672 5176 ft 359 kts 92°
2026-05-04 06:35 -33.94513 151.52626 5174 ft 368 kts 108°
2026-05-04 06:36 -34.06897 151.49379 7891 ft 383 kts 272°
2026-05-04 06:37 -34.06777 151.46246 9312 ft 381 kts 278°
2026-05-04 06:37 -34.06517 151.43086 10716 ft 386 kts 278°
2026-05-04 06:37 -34.06440 151.39882 12134 ft 392 kts 270°
2026-05-04 06:37 -34.06932 151.36618 13496 ft 401 kts 257°
2026-05-04 06:38 -34.08001 151.33531 14784 ft 409 kts 247°
2026-05-04 06:38 -34.09565 151.30612 16061 ft 418 kts 238°
2026-05-04 06:40 -34.25202 151.13040 17985 ft 442 kts 227°
2026-05-04 06:40 -34.27460 151.10584 17976 ft 438 kts 227°
2026-05-04 06:40 -34.29709 151.08112 17973 ft 437 kts 228°
2026-05-04 06:40 -34.31965 151.05612 17978 ft 438 kts 228°
2026-05-04 06:41 -34.34197 151.03131 17976 ft 438 kts 228°
2026-05-04 06:41 -34.36446 151.00630 17997 ft 438 kts 228°
2026-05-04 06:41 -34.38695 150.98131 17857 ft 441 kts 228°
2026-05-04 06:41 -34.40936 150.95645 17899 ft 437 kts 228°
2026-05-04 06:42 -34.43204 150.93127 17901 ft 438 kts 228°
2026-05-04 06:42 -34.45446 150.90639 17908 ft 439 kts 228°
2026-05-04 06:42 -34.47708 150.88124 17905 ft 444 kts 228°
2026-05-04 06:44 -34.62143 150.68968 17912 ft 436 kts 240°
2026-05-04 06:44 -34.63882 150.65959 17910 ft 437 kts 240°
2026-05-04 06:44 -34.65636 150.62939 17917 ft 437 kts 240°
2026-05-04 06:45 -34.67392 150.59949 17911 ft 435 kts 240°
2026-05-04 06:45 -34.69162 150.56964 17916 ft 435 kts 240°
2026-05-04 06:45 -34.70932 150.53996 17924 ft 437 kts 239°
2026-05-04 06:45 -34.72713 150.51019 17924 ft 439 kts 239°
2026-05-04 06:46 -34.74507 150.48024 17920 ft 441 kts 239°
2026-05-04 06:46 -34.76323 150.44992 17926 ft 441 kts 239°
2026-05-04 06:46 -34.78135 150.41966 17930 ft 441 kts 239°
2026-05-04 06:46 -34.79921 150.38985 17931 ft 440 kts 239°
2026-05-04 06:48 -34.92348 150.18162 17944 ft 415 kts 240°
2026-05-04 06:48 -34.94044 150.15314 17940 ft 403 kts 240°
2026-05-04 06:49 -34.95644 150.12634 17947 ft 385 kts 240°
2026-05-04 06:50 -35.06488 149.94481 17935 ft 387 kts 236°
2026-05-04 06:51 -35.08276 149.92033 17936 ft 383 kts 233°
2026-05-04 06:51 -35.10103 149.89739 17934 ft 378 kts 232°
2026-05-04 06:51 -35.11971 149.87456 17933 ft 385 kts 231°
2026-05-04 06:51 -35.13875 149.85110 17942 ft 385 kts 232°
2026-05-04 06:52 -35.15735 149.82770 17932 ft 384 kts 232°
2026-05-04 06:52 -35.17577 149.80411 17935 ft 383 kts 233°
2026-05-04 06:52 -35.19409 149.78043 17925 ft 377 kts 233°
2026-05-04 06:52 -35.21170 149.75761 17671 ft 373 kts 233°
2026-05-04 06:53 -35.22945 149.73454 17084 ft 375 kts 233°
2026-05-04 06:53 -35.24753 149.71097 16437 ft 377 kts 233°
2026-05-04 06:53 -35.26525 149.68788 15798 ft 379 kts 233°
2026-05-04 06:53 -35.28351 149.66412 15131 ft 380 kts 233°
2026-05-04 06:54 -35.30144 149.64081 14483 ft 381 kts 233°
2026-05-04 06:54 -35.31973 149.61703 13818 ft 382 kts 233°
2026-05-04 06:54 -35.33799 149.59331 13193 ft 381 kts 233°
2026-05-04 06:54 -35.35582 149.57018 12981 ft 368 kts 233°
2026-05-04 06:55 -35.37297 149.54807 12994 ft 350 kts 233°
2026-05-04 06:55 -35.38921 149.52705 12994 ft 335 kts 234°
2026-05-04 06:55 -35.40512 149.50633 12993 ft 331 kts 234°
2026-05-04 06:55 -35.42088 149.48563 12988 ft 331 kts 234°
2026-05-04 06:56 -35.43646 149.46515 12986 ft 328 kts 234°
2026-05-04 06:57 -35.54724 149.31744 9735 ft 370 kts 242°
2026-05-04 06:58 -35.55855 149.28986 8445 ft 362 kts 259°
2026-05-04 06:58 -35.56335 149.26018 7168 ft 354 kts 268°
2026-05-04 06:58 -35.56540 149.23064 5940 ft 348 kts 270°
2026-05-04 06:58 -35.56642 149.20166 5085 ft 333 kts 276°
2026-05-04 06:59 -35.56092 149.17551 4547 ft 307 kts 301°
2026-05-04 06:59 -35.54684 149.15801 4466 ft 278 kts 332°
2026-05-04 06:59 -35.52848 149.15370 4707 ft 283 kts
2026-05-04 06:59 -35.50956 149.16261 5574 ft 299 kts 24°
2026-05-04 07:01 -35.40319 149.19417 5298 ft 167 kts 355°
2026-05-04 07:01 -35.39271 149.19444 5290 ft 132 kts 354°
2026-05-04 07:02 -35.38416 149.19450 4973 ft 119 kts 352°
2026-05-04 07:02 -35.37628 149.19382 4694 ft 107 kts 349°
2026-05-04 07:02 -35.36877 149.19367 4246 ft 111 kts 354°
2026-05-04 07:02 -35.36104 149.19376 3797 ft 114 kts 356°
2026-05-04 07:03 -35.35297 149.19476 3393 ft 119 kts
2026-05-04 07:03 -35.34441 149.19568 2987 ft 124 kts 358°
2026-05-04 07:03 -35.33598 149.19598 2672 ft 121 kts 354°
2026-05-04 07:03 -35.32769 149.19544 2378 ft 117 kts 351°
2026-05-04 07:04 -35.31955 149.19466 2032 ft 119 kts 354°
2026-05-04 07:04 -35.31191 149.19447 1880 ft 80 kts
2026-05-04 07:04 -35.31027 149.19457 1880 ft 0 kts
2026-05-04 07:04 -35.30983 149.19457 1880 ft 37 kts 358°
2026-05-04 07:05 -35.30650 149.19444 1880 ft 49 kts 359°
2026-05-04 07:05 -35.30348 149.19449 1880 ft 27 kts
2026-05-04 07:05 -35.30294 149.19450 1880 ft 2 kts 354°
2026-05-04 07:05 -35.30272 149.19446 1880 ft 5 kts 355°
2026-05-04 07:06 -35.30157 149.19308 1877 ft 13 kts 267°
2026-05-04 07:06 -35.30162 149.19282 1877 ft 0 kts 252°
2026-05-04 07:07 -35.30193 149.19246 1876 ft 11 kts 198°
2026-05-04 07:08 -35.30636 149.19206 1875 ft 5 kts 258°
2026-05-04 07:09 -35.30637 149.19196 1875 ft 1 kts 258°
2026-05-04 07:09 -35.30670 149.19177 1875 ft 6 kts 191°
2026-05-04 07:09 -35.30707 149.19141 1874 ft 6 kts 240°
2026-05-04 07:09 -35.30716 149.19119 1874 ft 3 kts 244°
2026-05-04 07:10 -35.30717 149.19116 1874 ft 0 kts 245°